EW3238 Weather Reports


Display with metric or nautical units.
time (UTC)temp
F
wind
direction
speed
MPH
gust
MPH
rain 1hr
in
rain 24hr
in
rain mn
in
humidity
%
barometer
mb
20210922164044 75 354 8.0 14.0 0.00 0.00 0.00 37 1027.8
20210922163556 75 12 7.0 15.0 0.00 0.00 0.00 38 1027.8
20210922163159 75 349 10.0 15.0 0.00 0.00 0.00 37 1027.9
20210922162541 75 32 8.0 15.0 0.00 0.00 0.00 39 1027.9
20210922162042 75 58 7.0 13.0 0.00 0.00 0.00 39 1028.0
20210922161638 75 56 6.0 13.0 0.00 0.00 0.00 39 1027.9
20210922161046 75 35 7.0 15.0 0.00 0.00 0.00 40 1028.0
20210922160546 74 63 8.0 15.0 0.00 0.00 0.00 42 1028.0
20210922160151 74 72 5.0 12.0 0.00 0.00 0.00 42 1028.1
20210922155542 74 352 8.0 13.0 0.00 0.01 0.00 41 1028.0
20210922155045 74 20 9.0 13.0 0.00 0.01 0.00 41 1028.0
20210922154621 74 21 6.0 13.0 0.00 0.01 0.00 43 1028.0
20210922154040 74 13 6.0 11.0 0.00 0.01 0.00 43 1028.0
20210922153543 73 337 7.0 15.0 0.00 0.01 0.00 45 1028.2
20210922153107 72 344 9.0 15.0 0.00 0.01 0.00 45 1028.0
20210922152541 72 54 6.0 13.0 0.00 0.01 0.00 46 1028.1
20210922152101 72 24 6.0 13.0 0.00 0.01 0.00 47 1028.1
20210922151656 72 328 7.0 12.0 0.00 0.01 0.00 47 1028.1
20210922151047 71 326 6.0 10.0 0.00 0.01 0.00 47 1028.1
20210922150544 71 4 7.0 12.0 0.00 0.01 0.00 47 1028.1
20210922150058 71 30 6.0 12.0 0.00 0.01 0.00 48 1028.0
20210922145541 70 330 8.0 15.0 0.00 0.01 0.00 48 1028.1
20210922145055 70 348 7.0 15.0 0.00 0.01 0.00 48 1028.0
20210922144710 70 343 5.0 11.0 0.00 0.01 0.00 49 1028.0
20210922144051 70 310 5.0 11.0 0.00 0.01 0.00 51 1028.0
20210922143542 69 326 7.0 11.0 0.00 0.01 0.00 50 1027.9
20210922143119 69 18 6.0 12.0 0.00 0.01 0.00 50 1027.9
20210922142541 69 319 7.0 12.0 0.00 0.01 0.00 51 1027.8
20210922142114 68 342 6.0 10.0 0.00 0.01 0.00 53 1027.8
20210922141706 68 336 6.0 10.0 0.00 0.01 0.00 55 1027.8
20210922141041 68 30 4.0 8.0 0.00 0.01 0.00 56 1027.8
20210922140546 67 352 4.0 8.0 0.00 0.01 0.00 56 1027.7
20210922140156 67 1 4.0 10.0 0.00 0.01 0.00 57 1027.8
20210922135649 67 13 5.0 10.0 0.00 0.01 0.00 57 1027.8
20210922135041 66 56 5.0 9.0 0.00 0.01 0.00 57 1027.6
20210922134555 66 41 4.0 9.0 0.00 0.01 0.00 58 1027.8
20210922134048 65 15 4.0 10.0 0.00 0.01 0.00 59 1027.7
20210922133540 65 329 4.0 10.0 0.00 0.01 0.00 60 1027.6
20210922133156 65 347 5.0 9.0 0.00 0.01 0.00 60 1027.6
20210922132541 64 15 4.0 7.0 0.00 0.01 0.00 61 1027.6
20210922132050 64 332 4.0 6.0 0.00 0.01 0.00 63 1027.7
20210922131624 63 352 3.0 6.0 0.00 0.01 0.00 64 1027.6
20210922131041 63 6 3.0 6.0 0.00 0.01 0.00 65 1027.7
20210922130558 62 356 3.0 6.0 0.00 0.01 0.00 66 1027.5
20210922130309 62 326 4.0 6.0 0.00 0.01 0.00 66 1027.5
20210922125610 62 347 3.0 7.0 0.00 0.25 0.00 67 1027.5
20210922125045 61 353 4.0 7.0 0.00 0.25 0.00 67 1027.6
20210922124635 61 321 4.0 7.0 0.00 0.25 0.00 67 1027.6
20210922124041 60 359 4.0 7.0 0.00 0.25 0.00 68 1027.6
20210922123541 60 328 3.0 7.0 0.00 0.25 0.00 68 1027.5
20210922123106 60 319 4.0 6.0 0.00 0.25 0.00 69 1027.6
20210922122551 59 336 3.0 6.0 0.00 0.25 0.00 69 1027.5
20210922122046 59 345 3.0 6.0 0.00 0.25 0.00 69 1027.4
20210922121701 59 333 3.0 6.0 0.00 0.25 0.00 69 1027.4
20210922121043 59 316 3.0 7.0 0.00 0.25 0.00 69 1027.4
20210922120544 59 327 3.0 7.0 0.00 0.25 0.00 69 1027.5
20210922120112 59 330 3.0 6.0 0.00 0.25 0.00 69 1027.4
20210922115540 59 322 3.0 6.0 0.00 0.25 0.00 69 1027.4
20210922115041 59 337 3.0 6.0 0.00 0.25 0.00 69 1027.4
20210922114627 59 330 3.0 7.0 0.00 0.25 0.00 68 1027.4
20210922114048 59 343 4.0 7.0 0.00 0.25 0.00 68 1027.4
20210922113543 59 346 4.0 7.0 0.00 0.25 0.00 68 1027.5
20210922113128 60 298 4.0 7.0 0.00 0.25 0.00 67 1027.4
20210922112541 60 351 4.0 7.0 0.00 0.25 0.00 67 1027.4
20210922112100 60 11 4.0 7.0 0.00 0.25 0.00 66 1027.5
20210922111607 60 358 3.0 6.0 0.00 0.25 0.00 65 1027.5
20210922111047 60 336 4.0 6.0 0.00 0.25 0.00 63 1027.5
20210922110546 60 352 3.0 6.0 0.00 0.25 0.00 62 1027.4
20210922110242 61 325 4.0 6.0 0.00 0.25 0.00 61 1027.4
20210922105540 61 339 4.0 7.0 0.00 0.25 0.00 61 1027.4
20210922105040 61 351 4.0 7.0 0.00 0.25 0.00 61 1027.1
20210922104619 61 329 4.0 7.0 0.00 0.25 0.00 60 1027.2
20210922104047 61 352 4.0 8.0 0.00 0.25 0.00 60 1027.3
20210922103541 61 336 4.0 8.0 0.00 0.25 0.00 61 1027.2
20210922103144 60 348 4.0 8.0 0.00 0.25 0.00 62 1027.2
20210922102541 60 351 4.0 6.0 0.00 0.25 0.00 63 1027.2
20210922102041 60 313 4.0 6.0 0.00 0.25 0.00 63 1027.1
20210922101623 60 335 4.0 6.0 0.00 0.25 0.00 63 1027.0
20210922101041 60 7 4.0 6.0 0.00 0.25 0.00 64 1026.8
20210922100601 60 343 3.0 6.0 0.00 0.25 0.00 63 1026.8
20210922100220 60 331 3.0 4.0 0.00 0.25 0.00 63 1026.7
20210922095541 60 344 2.0 4.0 0.00 0.25 0.00 62 1026.6
20210922095045 60 324 2.0 4.0 0.00 0.25 0.00 61 1026.6
20210922094637 60 337 2.0 4.0 0.00 0.25 0.00 60 1026.5
20210922094041 60 319 2.0 3.0 0.00 0.25 0.00 59 1026.4
20210922093551 61 331 2.0 3.0 0.00 0.25 0.00 59 1026.4
20210922093109 61 349 2.0 4.0 0.00 0.25 0.00 58 1026.3
20210922092541 61 321 2.0 4.0 0.00 0.25 0.00 58 1026.3
20210922092109 61 341 2.0 4.0 0.00 0.25 0.00 58 1026.2
20210922091634 61 326 2.0 4.0 0.00 0.25 0.00 57 1026.2
20210922091046 61 333 1.0 4.0 0.00 0.25 0.00 57 1026.2
20210922090606 62 352 2.0 3.0 0.00 0.25 0.00 56 1026.3
20210922090158 62 329 1.0 3.0 0.00 0.25 0.00 56 1026.3
20210922085555 62 329 1.0 4.0 0.00 0.25 0.00 55 1026.2
20210922085040 62 11 2.0 5.0 0.00 0.25 0.00 55 1026.1
20210922084617 63 16 2.0 5.0 0.00 0.25 0.00 54 1026.2
20210922084042 63 9 3.0 6.0 0.00 0.25 0.00 54 1026.2
20210922083554 63 4 3.0 6.0 0.00 0.25 0.00 54 1026.0
20210922083201 63 343 3.0 6.0 0.00 0.25 0.00 54 1026.1
20210922082541 63 328 3.0 5.0 0.00 0.25 0.00 54 1026.1
20210922082041 63 339 2.0 6.0 0.00 0.25 0.00 55 1026.1
20210922081607 63 6 3.0 6.0 0.00 0.25 0.00 54 1026.0
20210922081044 63 338 3.0 5.0 0.00 0.25 0.00 54 1026.1
20210922080606 63 344 2.0 5.0 0.00 0.25 0.00 54 1026.1
20210922080206 64 18 2.0 5.0 0.00 0.25 0.00 53 1025.9
20210922075549 64 3 1.0 5.0 0.00 0.25 0.00 52 1026.1
20210922075042 65 50 2.0 6.0 0.00 0.25 0.00 51 1026.1
20210922074625 65 36 3.0 6.0 0.00 0.25 0.00 51 1025.9
20210922074041 65 8 2.0 4.0 0.00 0.25 0.00 51 1026.0
20210922073540 65 1 1.0 5.0 0.00 0.25 0.00 51 1026.0
20210922073130 65 348 2.0 6.0 0.00 0.25 0.00 50 1026.0
20210922072540 66 346 3.0 6.0 0.00 0.25 0.00 50 1026.0
20210922072040 66 323 3.0 5.0 0.00 0.25 0.00 49 1026.1
20210922071645 66 30 2.0 7.0 0.00 0.25 0.00 48 1026.2
20210922071044 67 10 4.0 7.0 0.00 0.25 0.00 47 1026.2
20210922070604 67 23 3.0 6.0 0.00 0.25 0.00 47 1026.2
20210922070207 67 34 2.0 5.0 0.00 0.25 0.00 47 1026.3
20210922065541 67 347 3.0 5.0 0.00 0.25 0.00 47 1026.2
20210922065046 68 34 2.0 5.0 0.00 0.25 0.00 46 1026.3
20210922064744 68 28 2.0 7.0 0.00 0.25 0.00 45 1026.3
20210922064106 68 46 3.0 7.0 0.00 0.25 0.00 45 1026.3
20210922063541 68 23 3.0 8.0 0.00 0.25 0.00 44 1026.3
20210922063221 69 57 4.0 8.0 0.00 0.25 0.00 44 1026.1
20210922062543 69 54 4.0 8.0 0.00 0.25 0.00 44 1026.3
20210922062050 69 62 5.0 8.0 0.00 0.25 0.00 43 1026.3
20210922061607 69 20 3.0 8.0 0.00 0.25 0.00 43 1026.2
20210922061110 69 18 4.0 7.0 0.00 0.25 0.00 42 1026.2
20210922060554 70 31 3.0 9.0 0.00 0.25 0.00 42 1026.2
20210922060115 70 16 5.0 10.0 0.00 0.25 0.00 41 1026.3
20210922055555 71 25 6.0 14.0 0.00 0.25 0.00 40 1026.3
20210922055121 71 41 7.0 14.0 0.00 0.25 0.00 40 1026.2
20210922054611 71 28 6.0 10.0 0.00 0.25 0.00 40 1026.1
20210922054042 71 20 7.0 10.0 0.00 0.25 0.00 40 1026.1
20210922053553 71 6 5.0 11.0 0.00 0.25 0.00 40 1025.9
20210922053133 71 35 6.0 13.0 0.00 0.25 0.00 40 1025.9
20210922052541 71 353 8.0 13.0 0.00 0.25 0.00 40 1025.9
20210922052114 71 359 4.0 9.0 0.00 0.25 0.00 40 1025.7
20210922051706 71 329 5.0 11.0 0.00 0.25 0.00 40 1025.7
20210922051120 71 7 5.0 11.0 0.00 0.25 0.00 40 1025.6
20210922050542 72 33 5.0 11.0 0.00 0.25 0.00 39 1025.6
20210922050204 72 359 7.0 12.0 0.00 0.25 0.00 38 1025.6
20210922045541 72 307 7.0 14.0 0.00 0.25 0.25 38 1025.6
20210922045040 72 359 7.0 14.0 0.00 0.25 0.25 38 1025.4
20210922044749 72 23 7.0 13.0 0.00 0.25 0.25 37 1025.4
20210922044049 73 347 8.0 13.0 0.00 0.25 0.25 37 1025.2
20210922043603 73 272 6.0 15.0 0.00 0.25 0.25 37 1025.3
20210922043112 73 300 7.0 15.0 0.00 0.25 0.25 37 1025.3
20210922042549 73 1 6.0 13.0 0.00 0.25 0.25 37 1025.2
20210922042042 73 19 8.0 13.0 0.00 0.25 0.25 36 1025.2
20210922041732 73 349 8.0 13.0 0.00 0.25 0.25 36 1025.1
20210922041047 73 18 7.0 14.0 0.00 0.25 0.25 36 1025.0
20210922040552 73 2 7.0 14.0 0.00 0.25 0.25 36 1024.9
20210922040139 73 340 5.0 14.0 0.00 0.25 0.25 36 1024.9
20210922035544 73 314 6.0 12.0 0.00 0.25 0.25 36 1025.0
20210922035107 73 21 6.0 12.0 0.00 0.25 0.25 37 1024.8
20210922034726 74 12 6.0 17.0 0.00 0.25 0.25 37 1024.9
20210922034044 74 33 8.0 17.0 0.00 0.25 0.25 37 1024.8
20210922033542 74 333 6.0 13.0 0.00 0.25 0.25 37 1024.8
20210922033120 74 5 7.0 13.0 0.00 0.25 0.25 37 1024.8
20210922032541 74 343 6.0 15.0 0.00 0.25 0.25 37 1024.7
20210922032043 74 15 6.0 15.0 0.00 0.25 0.25 37 1024.7
20210922031622 74 313 6.0 15.0 0.00 0.25 0.25 37 1024.7
20210922031041 75 342 8.0 15.0 0.00 0.25 0.25 36 1024.7
20210922030554 75 349 8.0 13.0 0.00 0.25 0.25 37 1024.6
20210922025546 75 11 8.0 15.0 0.00 0.25 0.25 37 1024.3
20210922025044 75 347 9.0 15.0 0.00 0.25 0.25 38 1024.3
20210922024619 75 4 9.0 15.0 0.00 0.25 0.25 38 1024.3
20210922024050 75 319 8.0 14.0 0.00 0.25 0.25 39 1024.2
20210922023543 75 11 6.0 13.0 0.00 0.25 0.25 39 1024.2
20210922023115 75 332 6.0 12.0 0.00 0.25 0.25 39 1024.1
20210922022544 75 6 6.0 11.0 0.00 0.25 0.25 39 1023.9
20210922022043 75 335 5.0 11.0 0.00 0.25 0.25 39 1024.0
20210922021615 75 6 5.0 9.0 0.00 0.25 0.25 39 1024.0
20210922021044 75 311 5.0 11.0 0.00 0.25 0.25 38 1023.9
20210922020553 75 340 6.0 11.0 0.00 0.25 0.25 38 1023.8
20210922020120 76 21 4.0 10.0 0.00 0.25 0.25 38 1023.7
20210922015542 76 9 5.0 10.0 0.00 0.25 0.25 37 1023.6
20210922015044 76 357 5.0 10.0 0.00 0.25 0.25 38 1023.5
20210922014600 76 323 6.0 11.0 0.00 0.25 0.25 37 1023.2
20210922014044 76 326 5.0 13.0 0.00 0.25 0.25 38 1023.0
20210922013543 76 80 5.0 13.0 0.00 0.25 0.25 37 1023.0
20210922013140 76 356 5.0 10.0 0.00 0.25 0.25 38 1022.9
20210922012544 76 13 5.0 11.0 0.00 0.25 0.25 37 1022.7
20210922012044 76 342 5.0 15.0 0.00 0.25 0.25 37 1022.7
20210922011707 77 348 7.0 15.0 0.00 0.25 0.25 37 1022.6
20210922011044 77 337 6.0 12.0 0.00 0.25 0.25 36 1022.6
20210922010546 77 336 5.0 17.0 0.00 0.25 0.25 36 1022.4
20210922010120 78 356 8.0 17.0 0.00 0.25 0.25 35 1022.4
20210922005547 78 326 9.0 18.0 0.00 0.25 0.25 36 1022.3
20210922005043 78 10 9.0 18.0 0.00 0.25 0.25 36 1022.2
20210922004826 78 9 10.0 18.0 0.00 0.25 0.25 36 1022.0
20210922004044 78 338 9.0 17.0 0.00 0.25 0.25 36 1022.1
20210922003542 78 352 10.0 19.0 0.00 0.25 0.25 37 1022.0
20210922003138 79 228 8.0 19.0 0.00 0.25 0.25 37 1021.9
20210922002554 79 348 8.0 18.0 0.00 0.25 0.25 37 1021.8
20210922002041 79 332 10.0 18.0 0.00 0.25 0.25 37 1021.7
20210922001739 79 15 9.0 18.0 0.00 0.25 0.25 37 1021.4
20210922001043 79 326 10.0 16.0 0.00 0.25 0.25 38 1021.5
20210922000607 79 17 8.0 14.0 0.00 0.25 0.25 39 1021.5
20210922000150 80 338 9.0 18.0 0.00 0.25 0.25 39 1021.4
20210921235549 80 4 11.0 19.0 0.00 0.25 0.25 38 1021.3
20210921235048 80 328 10.0 19.0 0.00 0.25 0.25 38 1021.4
20210921234613 80 341 10.0 23.0 0.00 0.25 0.25 39 1021.3
20210921234047 80 348 12.0 23.0 0.00 0.25 0.25 38 1021.2
20210921233614 81 6 9.0 18.0 0.00 0.25 0.25 38 1021.0
20210921233218 81 353 11.0 21.0 0.00 0.25 0.25 38 1021.0
20210921232546 81 352 12.0 21.0 0.00 0.25 0.25 39 1020.8
20210921232044 81 348 10.0 18.0 0.00 0.25 0.25 39 1020.7
20210921231716 81 316 10.0 16.0 0.00 0.25 0.25 39 1020.9
20210921231043 82 330 9.0 15.0 0.00 0.25 0.25 38 1020.8
20210921230542 82 345 8.0 19.0 0.00 0.25 0.25 40 1020.7
20210921230132 82 329 11.0 19.0 0.00 0.25 0.25 41 1020.6
20210921225554 82 345 7.0 16.0 0.00 0.25 0.25 40 1020.5
20210921225044 82 11 8.0 21.0 0.00 0.25 0.25 41 1020.5
20210921224646 82 354 11.0 21.0 0.00 0.25 0.25 40 1020.5
20210921224057 82 352 11.0 19.0 0.00 0.25 0.25 39 1020.4
20210921223550 83 3 10.0 20.0 0.00 0.25 0.25 40 1020.2
20210921223125 83 352 9.0 20.0 0.00 0.25 0.25 39 1020.3
20210921222616 83 21 11.0 20.0 0.00 0.25 0.25 39 1020.3
20210921222051 83 316 9.0 21.0 0.00 0.25 0.25 39 1020.3
20210921221706 83 344 9.0 22.0 0.00 0.25 0.25 40 1020.4
20210921221046 84 356 13.0 22.0 0.00 0.25 0.25 39 1020.3
20210921220602 84 331 11.0 21.0 0.00 0.25 0.25 41 1020.2
20210921220254 84 6 10.0 24.0 0.00 0.25 0.25 41 1020.2
20210921215546 84 338 13.0 24.0 0.00 0.25 0.25 40 1020.2
20210921215114 84 344 11.0 20.0 0.00 0.25 0.25 41 1020.2
20210921214641 84 13 12.0 20.0 0.00 0.25 0.25 42 1020.2
20210921214042 84 331 8.0 17.0 0.00 0.25 0.25 42 1020.0
20210921213630 84 9 9.0 18.0 0.00 0.25 0.25 42 1020.1
20210921213102 84 359 11.0 19.0 0.00 0.25 0.25 42 1020.0
20210921212543 84 321 12.0 20.0 0.00 0.25 0.25 42 1020.0
20210921212043 84 317 12.0 23.0 0.00 0.25 0.25 42 1020.0
20210921211602 85 335 12.0 23.0 0.00 0.25 0.25 40 1020.2
20210921211044 85 309 9.0 25.0 0.00 0.25 0.25 40 1020.0
20210921210547 85 11 13.0 25.0 0.00 0.25 0.25 39 1020.0
20210921210129 85 338 12.0 20.0 0.00 0.25 0.25 40 1020.0
20210921205547 85 337 10.0 20.0 0.00 0.25 0.25 40 1020.0
20210921205043 85 341 12.0 21.0 0.00 0.25 0.25 41 1020.0
20210921204648 85 345 11.0 21.0 0.00 0.25 0.25 41 1020.0
20210921204047 85 336 10.0 19.0 0.00 0.25 0.25 41 1019.9
20210921203541 85 11 12.0 19.0 0.00 0.25 0.25 42 1020.0
20210921203133 85 326 9.0 17.0 0.00 0.25 0.25 42 1019.9
20210921202550 85 307 12.0 19.0 0.00 0.25 0.25 42 1019.9
20210921202044 85 16 8.0 19.0 0.00 0.25 0.25 43 1020.0
20210921201817 85 325 9.0 17.0 0.00 0.25 0.25 42 1019.9
20210921201056 85 350 10.0 18.0 0.00 0.25 0.25 44 1020.0
20210921200546 85 319 10.0 19.0 0.00 0.25 0.25 43 1020.0
20210921200123 84 321 10.0 20.0 0.00 0.25 0.25 45 1020.1
20210921195543 84 330 11.0 20.0 0.00 0.25 0.25 46 1020.0
20210921195049 84 312 10.0 19.0 0.00 0.25 0.25 47 1020.2
20210921194722 84 328 11.0 19.0 0.00 0.25 0.25 47 1020.1
20210921194041 84 343 11.0 18.0 0.00 0.25 0.25 49 1020.1
20210921193553 84 323 12.0 19.0 0.00 0.25 0.25 49 1020.2
20210921193134 83 44 10.0 19.0 0.00 0.25 0.25 50 1020.2
20210921192542 83 30 12.0 18.0 0.00 0.25 0.25 50 1020.4
20210921192041 83 345 9.0 16.0 0.00 0.25 0.25 53 1020.4
20210921191639 83 358 8.0 17.0 0.00 0.25 0.25 54 1020.4
20210921191047 83 352 10.0 17.0 0.00 0.25 0.25 53 1020.4
20210921190543 82 303 9.0 14.0 0.00 0.25 0.25 54 1020.5
20210921190142 82 33 7.0 16.0 0.00 0.25 0.25 54 1020.5
20210921185604 82 348 9.0 17.0 0.00 0.25 0.25 55 1020.5
20210921185050 82 20 10.0 20.0 0.00 0.25 0.25 56 1020.4
20210921184654 82 37 10.0 20.0 0.00 0.25 0.25 55 1020.5
20210921184043 82 33 10.0 15.0 0.00 0.25 0.25 56 1020.5
20210921183550 82 336 7.0 16.0 0.00 0.25 0.25 55 1020.5
20210921183135 82 340 11.0 16.0 0.00 0.25 0.25 55 1020.4
20210921182551 83 303 9.0 15.0 0.00 0.25 0.25 55 1020.4
20210921182042 83 340 7.0 15.0 0.00 0.25 0.25 55 1020.4
20210921181622 83 7 9.0 16.0 0.00 0.25 0.25 55 1020.4
20210921181048 83 343 10.0 16.0 0.00 0.25 0.25 55 1020.4
20210921180543 82 320 10.0 16.0 0.00 0.25 0.25 56 1020.3
20210921180150 82 320 10.0 16.0 0.00 0.25 0.25 56 1020.4
20210921175549 82 328 7.0 13.0 0.00 0.25 0.25 57 1020.4
20210921175043 82 4 8.0 13.0 0.00 0.25 0.25 58 1020.5
20210921174644 82 343 7.0 13.0 0.00 0.25 0.25 59 1020.5
20210921174043 80 323 8.0 13.0 0.00 0.25 0.25 60 1020.4
20210921173544 80 300 6.0 12.0 0.00 0.25 0.25 60 1020.6
20210921173121 81 336 6.0 12.0 0.00 0.25 0.25 58 1020.5
20210921172543 82 319 7.0 13.0 0.00 0.25 0.25 58 1020.4
20210921172041 81 350 9.0 16.0 0.00 0.25 0.25 58 1020.3
20210921171613 81 340 7.0 16.0 0.00 0.25 0.25 59 1020.3
20210921171051 80 15 11.0 16.0 0.00 0.25 0.25 58 1020.5
20210921170541 81 315 9.0 17.0 0.00 0.25 0.25 59 1020.6
20210921170200 81 13 10.0 17.0 0.00 0.25 0.25 59 1020.6
20210921165540 80 32 9.0 16.0 0.00 0.25 0.25 59 1020.4
20210921165044 80 309 8.0 16.0 0.00 0.25 0.25 61 1020.3
20210921164641 79 17 9.0 17.0 0.00 0.25 0.25 61 1020.3